Regional Weather Roundup
Issued by NWS

Home | Current Version | Previous Version | Graphics & Text | Print | Product List | Glossary On
Versions: 1 2 3 4 5 6 7 8 9 10 11 12 13 14 15 16 17 18 19 20 21 22 23 24 25 26 27 28 29 30 31 32 33 34 35 36 37 38 39 40 41 42 43 44 45 46 47 48 49 50
000
ASUS43 KBIS 291410
RWRND

NORTH DAKOTA REGIONAL WEATHER ROUNDUP
NATIONAL WEATHER SERVICE BISMARCK ND
900 AM CDT WED JUL 29 2015

NOTE: "FAIR" INDICATES FEW OR NO CLOUDS BELOW 12,000 FEET WITH NO
SIGNIFICANT WEATHER AND/OR OBSTRUCTIONS TO VISIBILITY.


NDZ001>003-009>011-017-291500-
NORTHWEST NORTH DAKOTA

CITY           SKY/WX    TMP DP  RH WIND       PRES   REMARKS
WILLISTON      PTSUNNY   61  51  70 W17       30.02R
MINOT          MOSUNNY   66  51  58 W21G28    29.90R
MINOT AFB      MOSUNNY   66  55  67 W20G26    29.89R
$$

NDZ018>021-031>035-040>046-291500-
SOUTHWEST NORTH DAKOTA

CITY           SKY/WX    TMP DP  RH WIND       PRES   REMARKS
BISMARCK       SUNNY     68  48  48 W20G26    30.01R
DICKINSON      PTSUNNY   61  46  57 W13       30.08R
GARRISON         N/A     65  52  62 W18G28    29.97R
HETTINGER ARPT SUNNY     63  43  48 W18       30.13S
$$

NDZ004>008-012>016-024-026-027-054-291500-
NORTHEAST NORTH DAKOTA

CITY           SKY/WX    TMP DP  RH WIND       PRES   REMARKS
GRAND FORKS    CLOUDY    69  53  56 W28G37    29.70R
GRND FRKS AFB  PTSUNNY   69  53  56 NW26G35   29.72R
DEVILS LAKE    SUNNY     66  52  59 W26G37    29.78R
$$

NDZ022-023-025-028>030-036>039-047>053-291500-
SOUTHEAST NORTH DAKOTA

CITY           SKY/WX    TMP DP  RH WIND       PRES   REMARKS
FARGO          SUNNY     71  53  52 W26G37    29.80R
JAMESTOWN      SUNNY     66  51  58 W22G33    29.90R
$$



USA.gov is the U.S. government's official web portal to all federal, state and local government web resources and services.